Temp
-15 -15 -15 -15 -14 -14 -14 -14 -14 -14 -13 -12 -14 -13 -13 -13 -14 -13 -14 -14 -14 -14 -14 -14 -14 -14 -14 -14 -14 -14 -14 -13 -14 -13 -14 -14 -14 -14
-15 -15 -16 -16 -16 -16 -14 -14 -14 -14 -13 -13 -14 -14 -13 -13 -13 -13 -13 -14 -14 -14 -14 -14 -14 -14 -13 -13 -13 -14 -14 -14 -14 -14 -14 -14 -14 -14
-16 -15 -16 -16 -16 -16 -15 -14 -13 -13 -14 -14 -14 -14 -14 -13 -13 -14 -14 -14 -14 -14 -14 -14 -14 -14 -14 -14 -14 -14 -14 -14 -14 -14 -14 -14 -14 -15
-16 -15 -16 -15 -14 -16 -15 -15 -14 -14 -14 -14 -14 -14 -14 -13 -13 -13 -14 -14 -14 -14 -14 -14 -14 -14 -14 -13 -14 -14 -14 -14 -14 -15 -15 -15 -15 -15
-16 -16 -16 -15 -15 -15 -15 -14 -14 -14 -14 -14 -14 -14 -14 -14 -14 -14 -13 -14 -14 -14 -14 -14 -14 -14 -14 -14 -14 -14 -14 -14 -15 -14 -15 -15 -15 -15
-17 -16 -16 -15 -15 -15 -15 -15 -15 -15 -14 -14 -14 -14 -14 -14 -14 -14 -14 -13 -13 -14 -14 -14 -14 -14 -14 -14 -14 -14 -14 -14 -15 -15 -15 -15 -15 -15
-17 -16 -16 -16 -15 -15 -15 -15 -15 -15 -15 -14 -14 -14 -14 -14 -14 -14 -14 -14 -14 -14 -14 -14 -14 -14 -15 -15 -14 -14 -15 -15 -14 -14 -15 -15 -15 -15
-17 -17 -16 -16 -15 -15 -15 -16 -15 -15 -15 -15 -15 -14 -14 -14 -14 -13 -14 -14 -13 -13 -12 -14 -13 -14 -14 -15 -15 -15 -15 -15 -15 -15 -15 -15 -15 -15
-17 -17 -16 -16 -16 -17 -17 -16 -16 -15 -15 -15 -15 -15 -14 -14 -14 -14 -14 -14 -14 -14 -14 -14 -14 -14 -14 -15 -15 -15 -15 -15 -15 -15 -15 -15 -15 -15
-17 -17 -17 -16 -17 -17 -17 -16 -16 -16 -15 -15 -14 -15 -15 -15 -14 -14 -14 -14 -14 -14 -14 -14 -14 -14 -15 -15 -15 -15 -15 -15 -15 -15 -15 -15 -15 -15
-17 -18 -18 -18 -17 -17 -17 -16 -16 -16 -15 -15 -15 -14 -14 -15 -15 -15 -14 -15 -15 -14 -14 -14 -14 -14 -15 -15 -15 -15 -15 -15 -16 -16 -15 -15 -15 -15
-18 -18 -18 -18 -17 -17 -17 -17 -18 -17 -16 -15 -15 -14 -15 -15 -15 -15 -15 -15 -15 -14 -15 -14 -14 -14 -15 -15 -15 -16 -15 -16 -16 -16 -16 -16 -15 -15
-18 -18 -18 -18 -18 -18 -17 -17 -18 -18 -18 -17 -17 -16 -16 -17 -17 -16 -16 -17 -16 -15 -16 -15 -15 -15 -15 -15 -15 -15 -16 -16 -16 -16 -16 -16 -16 -15
-18 -19 -18 -18 -18 -18 -18 -17 -18 -18 -18 -18 -18 -18 -18 -18 -18 -17 -17 -17 -17 -16 -16 -14 -15 -15 -15 -15 -15 -16 -15 -16 -16 -16 -16 -16 -16 -16
-19 -19 -19 -18 -18 -18 -17 -17 -17 -18 -17 -17 -17 -18 -18 -18 -18 -18 -18 -18 -17 -17 -16 -15 -15 -15 -15 -15 -15 -16 -15 -16 -16 -16 -16 -16 -16 -16
-19 -19 -19 -18 -18 -18 -18 -17 -17 -17 -17 -17 -17 -17 -18 -18 -18 -18 -18 -18 -18 -16 -16 -16 -15 -15 -15 -15 -16 -16 -16 -16 -16 -17 -17 -16 -16 -16
-21 -20 -20 -19 -19 -19 -18 -17 -17 -17 -17 -17 -17 -17 -17 -18 -18 -18 -18 -18 -18 -18 -17 -17 -17 -16 -16 -16 -16 -16 -16 -16 -16 -17 -17 -17 -16 -16
-20 -20 -20 -19 -19 -19 -19 -18 -18 -18 -17 -17 -17 -18 -18 -18 -18 -18 -17 -18 -18 -18 -18 -17 -17 -16 -16 -16 -16 -16 -16 -16 -16 -16 -17 -17 -17 -16
-20 -20 -20 -19 -19 -19 -19 -18 -18 -18 -18 -18 -18 -18 -18 -17 -18 -18 -17 -17 -17 -17 -19 -19 -18 -17 -16 -16 -16 -16 -16 -16 -17 -17 -17 -16 -17 -17
-21 -21 -21 -20 -20 -20 -20 -19 -18 -18 -18 -18 -17 -17 -17 -17 -17 -17 -17 -17 -17 -17 -17 -18 -18 -18 -17 -17 -17 -16 -17 -16 -16 -16 -16 -17 -17 -17
-22 -22 -21 -21 -21 -21 -20 -20 -19 -18 -18 -18 -18 -17 -17 -17 -17 -17 -17 -17 -17 -17 -17 -17 -17 -19 -18 -18 -17 -17 -17 -17 -17 -16 -17 -17 -17 -17
-24 -23 -22 -22 -22 -21 -21 -21 -21 -21 -20 -19 -18 -18 -17 -17 -17 -17 -17 -17 -17 -17 -17 -17 -17 -18 -17 -18 -17 -17 -17 -17 -17 -17 -17 -16 -17 -17
-24 -24 -23 -23 -22 -22 -22 -22 -21 -21 -21 -21 -20 -20 -20 -20 -19 -18 -17 -17 -17 -17 -17 -17 -17 -17 -18 -17 -17 -18 -17 -17 -17 -17 -17 -17 -17 -17
Height
5663 5666 5665 5670 5669 5672 5676 5674 5679 5682 5685 5688 5692 5695 5698 5701 5706 5708 5712 5713 5714 5717 5717 5717 5719 5720 5722 5723 5725 5727 5728 5729 5727 5728 5729 5729 5730 5731
5649 5654 5655 5656 5658 5659 5663 5665 5668 5670 5672 5676 5680 5685 5686 5691 5696 5699 5703 5704 5705 5708 5710 5710 5712 5712 5713 5714 5716 5718 5719 5721 5721 5722 5722 5723 5723 5724
5634 5640 5644 5647 5649 5652 5653 5654 5658 5658 5660 5665 5667 5673 5678 5682 5686 5689 5692 5695 5696 5698 5701 5702 5704 5705 5706 5706 5707 5709 5710 5711 5712 5712 5713 5714 5715 5714
5619 5623 5629 5632 5635 5637 5641 5645 5646 5649 5649 5655 5657 5663 5667 5672 5675 5677 5681 5685 5686 5689 5691 5693 5695 5698 5697 5698 5699 5701 5701 5702 5702 5703 5704 5704 5705 5705
5609 5613 5618 5621 5624 5628 5631 5634 5635 5638 5639 5643 5647 5651 5656 5660 5663 5667 5667 5674 5676 5680 5682 5684 5687 5689 5689 5690 5690 5691 5692 5693 5693 5692 5693 5694 5694 5695
5597 5602 5604 5608 5612 5618 5620 5623 5624 5626 5629 5632 5637 5640 5643 5649 5652 5655 5659 5662 5660 5669 5672 5674 5677 5679 5680 5681 5683 5682 5683 5683 5683 5683 5682 5683 5683 5684
5588 5592 5595 5598 5601 5606 5607 5610 5614 5616 5621 5621 5624 5628 5633 5638 5643 5647 5647 5651 5654 5651 5661 5664 5666 5668 5670 5672 5672 5674 5674 5674 5674 5674 5673 5672 5671 5672
5577 5582 5585 5588 5591 5593 5595 5599 5603 5606 5610 5612 5614 5617 5620 5623 5628 5629 5630 5637 5643 5647 5649 5653 5647 5654 5658 5661 5662 5663 5664 5665 5665 5664 5662 5661 5659 5659
5565 5570 5574 5578 5579 5583 5586 5590 5592 5594 5597 5599 5601 5605 5610 5612 5615 5618 5622 5625 5629 5634 5638 5639 5636 5643 5647 5648 5652 5652 5654 5655 5654 5653 5653 5650 5648 5647
5552 5557 5562 5566 5568 5571 5574 5578 5581 5581 5583 5587 5589 5595 5597 5599 5606 5607 5609 5613 5616 5621 5623 5626 5629 5630 5632 5636 5640 5641 5642 5644 5644 5642 5642 5641 5637 5635
5540 5545 5550 5554 5557 5561 5564 5567 5568 5571 5573 5574 5576 5580 5582 5587 5591 5593 5597 5600 5605 5609 5612 5615 5618 5619 5620 5625 5628 5629 5630 5631 5632 5631 5631 5629 5627 5626
5529 5533 5538 5543 5547 5550 5552 5554 5558 5560 5562 5564 5565 5567 5568 5571 5576 5582 5583 5587 5591 5594 5598 5598 5602 5605 5609 5611 5615 5617 5618 5619 5620 5620 5619 5618 5616 5615
5517 5522 5526 5530 5534 5537 5541 5544 5547 5550 5551 5553 5555 5555 5556 5558 5560 5565 5571 5571 5576 5578 5579 5582 5588 5589 5594 5597 5601 5604 5605 5606 5607 5608 5609 5607 5605 5603
5505 5509 5514 5518 5521 5525 5528 5532 5535 5539 5541 5543 5545 5547 5547 5548 5549 5550 5554 5559 5561 5563 5565 5568 5573 5576 5579 5583 5587 5591 5592 5592 5595 5596 5596 5595 5593 5591
5494 5498 5502 5505 5509 5512 5516 5519 5523 5525 5528 5531 5533 5535 5537 5538 5538 5540 5541 5544 5546 5549 5553 5556 5559 5562 5565 5568 5572 5576 5577 5579 5581 5583 5583 5582 5581 5580
5481 5484 5488 5492 5496 5498 5500 5503 5507 5511 5515 5518 5521 5523 5524 5525 5526 5528 5530 5532 5532 5535 5540 5541 5546 5548 5550 5554 5557 5559 5562 5565 5567 5569 5568 5568 5568 5567
5469 5471 5474 5478 5481 5483 5486 5489 5492 5495 5499 5503 5507 5510 5511 5512 5513 5515 5517 5519 5519 5520 5523 5526 5531 5533 5534 5540 5542 5545 5548 5550 5552 5553 5553 5554 5555 5554
5456 5458 5460 5463 5466 5469 5471 5474 5476 5480 5482 5486 5490 5493 5496 5498 5500 5502 5504 5506 5506 5507 5506 5509 5513 5517 5519 5524 5528 5531 5535 5535 5536 5537 5538 5540 5539 5539
5441 5442 5443 5446 5448 5451 5453 5456 5458 5461 5465 5468 5471 5474 5478 5483 5485 5487 5489 5491 5494 5495 5495 5495 5496 5498 5503 5507 5513 5516 5520 5520 5521 5523 5524 5525 5525 5524
5425 5426 5427 5427 5429 5432 5434 5437 5439 5443 5446 5449 5453 5457 5461 5465 5469 5471 5474 5477 5480 5481 5485 5486 5487 5484 5487 5493 5496 5500 5502 5504 5505 5508 5510 5510 5510 5510
5404 5404 5406 5408 5410 5412 5414 5416 5418 5421 5425 5428 5432 5436 5441 5445 5450 5453 5456 5460 5463 5466 5468 5472 5474 5474 5474 5477 5481 5483 5486 5488 5490 5492 5495 5496 5497 5496
5390 5388 5387 5388 5390 5392 5394 5396 5397 5398 5401 5404 5408 5411 5416 5421 5427 5432 5436 5441 5445 5449 5453 5457 5461 5461 5461 5464 5464 5468 5470 5473 5475 5477 5478 5481 5482 5481
5375 5372 5370 5370 5371 5372 5375 5377 5379 5380 5381 5384 5387 5390 5392 5396 5400 5406 5412 5418 5424 5430 5435 5440 5443 5446 5447 5448 5450 5451 5452 5456 5459 5462 5464 5465 5466 5465
Wind_Speed
63 60 63 57 50 49 41 36 44 43 46 41 42 39 42 39 40 36 32 36 30 26 23 22 25 27 28 30 28 27 24 27 24 24 26 25 28 29
62 59 60 54 44 38 42 41 42 40 44 39 40 44 39 39 41 38 34 34 32 29 29 26 26 24 28 30 32 32 30 31 30 29 27 27 27 27
63 58 51 42 41 43 42 38 43 44 48 31 31 33 48 42 40 41 38 35 31 30 32 30 30 28 25 26 29 28 29 29 31 31 32 33 33 31
65 48 54 41 40 37 36 33 32 34 36 40 39 37 41 41 42 44 39 35 34 31 32 34 33 30 27 26 26 27 27 29 31 31 30 31 35 36
60 51 49 50 48 44 37 39 30 34 38 39 39 42 42 46 46 39 39 40 38 34 34 33 32 33 31 29 26 25 28 30 31 32 33 32 32 37
47 49 41 39 36 39 36 35 31 30 37 44 41 40 45 51 48 42 40 37 37 32 39 35 35 35 32 33 32 30 29 28 33 37 36 35 37 36
38 29 37 39 38 35 31 31 34 35 35 35 37 42 41 46 51 47 46 47 42 39 37 40 40 38 34 34 33 32 31 33 33 31 34 38 38 41
29 33 41 42 42 37 34 36 39 41 42 41 41 41 48 42 44 47 34 51 51 45 33 44 44 42 36 35 36 37 37 38 34 35 37 36 37 39
37 41 43 45 43 40 38 42 43 41 44 46 46 40 41 49 45 37 41 45 45 45 47 45 50 52 38 35 39 39 37 37 38 36 37 36 37 42
41 43 45 47 43 43 41 41 42 43 44 43 48 50 48 44 44 39 49 47 43 46 49 50 47 48 45 41 42 41 39 40 39 38 38 37 37 34
51 47 47 46 45 43 40 39 40 44 45 46 47 46 50 53 51 49 53 53 50 48 48 53 56 57 43 45 46 43 41 40 41 40 40 38 36 35
50 48 46 45 42 39 39 37 38 40 41 42 45 49 47 50 53 53 58 48 51 50 52 49 48 58 54 51 47 44 43 43 42 43 41 40 37 38
46 48 45 45 44 42 40 39 40 40 38 37 37 34 39 45 52 53 53 51 47 49 48 55 52 52 55 50 48 50 46 43 44 44 42 42 42 40
47 46 46 48 46 46 45 42 42 40 40 39 37 37 36 35 41 50 54 51 55 53 50 54 53 51 52 55 54 52 49 47 45 44 43 43 43 42
49 48 47 50 53 50 50 48 45 43 41 39 40 44 43 43 40 37 43 44 54 53 51 53 50 53 48 54 59 53 51 48 46 46 45 45 44 44
43 50 51 53 55 58 54 54 52 50 50 47 44 45 46 45 41 41 38 37 44 51 52 41 50 47 46 51 55 54 51 48 50 48 45 45 44 42
39 44 49 52 55 56 55 57 59 57 55 53 51 49 49 48 45 46 45 41 38 41 54 58 45 50 47 48 51 51 47 46 49 48 45 47 45 42
49 49 49 50 52 53 55 60 63 64 61 59 57 54 52 52 52 49 47 46 40 39 41 50 50 55 47 52 49 49 48 45 50 51 47 46 45 45
55 55 57 58 59 59 58 56 55 57 59 58 59 59 58 57 54 52 51 48 48 44 40 40 42 53 55 45 47 47 46 48 53 52 48 47 47 47
57 59 60 62 62 64 63 64 65 65 63 61 60 59 58 57 56 56 55 53 52 48 49 40 46 42 54 55 53 55 48 47 51 51 49 47 48 47
57 62 64 62 62 63 64 65 67 69 71 72 71 70 69 67 65 61 59 58 57 56 53 50 45 46 38 45 51 48 47 48 52 52 50 50 49 48
40 45 55 63 64 61 58 58 60 62 65 69 73 76 78 79 77 75 70 66 63 62 60 56 51 49 47 48 43 45 52 57 60 55 49 53 51 50
43 43 44 48 55 56 54 54 54 54 54 54 56 58 59 67 74 83 83 78 74 70 65 62 60 56 46 45 44 46 46 48 46 48 45 47 49 53
Wind_Direction
254 256 260 266 269 257 262 261 254 250 248 253 256 255 240 241 235 241 242 246 247 249 247 244 246 246 251 257 257 261 265 267 295 262 260 265 267 272
258 260 263 265 270 283 265 262 242 255 251 245 251 245 246 237 239 241 240 243 245 247 248 246 249 253 252 252 255 259 262 263 269 270 271 271 277 283
259 263 258 261 260 267 264 259 248 260 247 239 248 250 245 237 237 236 237 238 241 247 249 250 253 255 261 258 256 259 262 262 263 265 271 270 273 279
253 255 269 269 265 259 255 251 246 249 254 245 240 247 248 239 236 237 237 234 241 246 248 248 251 255 260 265 265 265 264 263 264 266 270 269 271 273
258 264 261 263 262 252 245 242 243 248 247 242 238 245 244 238 242 246 239 241 241 240 243 247 251 258 262 261 265 270 267 265 265 258 261 265 275 273
255 259 251 244 244 240 240 239 246 251 251 244 243 244 243 242 241 243 247 242 238 234 248 248 254 259 265 267 265 267 270 265 265 262 265 260 265 269
237 234 239 241 233 236 236 243 247 246 248 244 242 245 243 242 245 245 245 244 234 235 247 252 254 257 263 268 265 264 267 269 271 274 274 272 271 263
233 241 244 243 240 241 243 247 248 247 247 244 244 243 236 259 253 239 243 241 241 241 244 255 245 252 256 262 261 263 265 269 276 275 278 286 275 270
238 241 238 244 244 249 251 248 244 246 248 245 245 247 245 244 245 255 246 247 245 247 246 248 246 251 254 259 260 262 266 270 270 276 280 289 285 278
240 242 240 243 246 246 247 248 246 248 250 249 249 245 241 244 247 250 254 249 247 248 249 248 253 249 253 256 260 262 266 267 273 274 280 285 287 281
245 243 242 243 245 243 242 246 251 250 248 253 254 251 248 246 242 248 250 251 246 246 250 255 251 254 252 253 258 263 267 269 272 275 278 282 286 272
234 241 239 239 239 243 245 245 247 250 251 248 252 255 253 249 248 245 247 248 244 247 249 249 245 251 251 252 257 262 264 266 272 274 277 280 284 278
239 239 237 234 238 240 243 243 242 244 250 254 255 255 258 256 254 251 251 255 253 244 245 249 250 247 247 253 256 260 261 264 268 270 274 278 278 282
237 235 241 240 243 242 241 242 242 244 247 250 252 253 259 267 264 257 252 250 252 253 251 251 244 252 255 254 253 256 259 263 265 266 270 275 278 279
238 237 240 242 241 245 243 244 244 243 245 248 252 253 256 263 267 275 258 256 255 253 254 242 250 255 244 246 254 255 258 261 264 265 266 271 275 277
239 234 240 243 247 250 250 245 245 245 245 245 248 253 253 257 263 265 274 262 254 242 249 236 238 245 256 253 254 256 255 261 262 261 262 267 272 276
248 243 240 241 246 246 247 247 246 245 246 247 248 250 254 256 258 259 264 267 270 259 247 246 250 249 242 245 249 256 257 261 261 260 262 265 269 275
250 247 247 245 245 246 249 251 251 252 249 251 252 254 252 255 257 259 259 260 265 264 268 248 240 248 254 253 248 252 252 255 260 262 262 268 270 272
260 260 254 249 247 247 248 249 251 252 253 255 255 257 258 256 254 255 255 258 260 261 268 273 271 248 240 245 245 249 252 266 258 261 264 267 269 270
260 260 260 257 255 256 256 252 249 247 249 250 251 253 255 257 255 254 253 253 257 258 259 259 266 268 250 249 249 243 254 260 258 259 259 264 268 272
264 264 263 262 261 260 260 259 256 253 250 250 250 251 253 254 255 252 252 253 254 257 260 259 261 267 259 256 248 246 254 255 260 257 260 264 268 273
275 271 264 261 260 263 261 262 263 262 260 257 255 252 250 250 251 251 249 248 252 253 255 257 256 257 263 259 249 249 257 258 261 260 262 261 264 272
282 285 277 264 259 256 257 260 262 262 259 258 256 255 256 255 253 249 247 248 247 249 251 253 255 253 252 254 251 270 261 256 256 255 264 268 267 269